This is the latest recevied weather packets stored in our database for station/object AI9F. If no packets are shown the sender has not sent any weather packets the latest 10 day(s).
| Time | Temp. | Humidity | Pressure | Rain* | Wind** | Luminosity | Snow |
|---|---|---|---|---|---|---|---|
| 1777891226 | 12.78° C | 94% | 1009.1 hPa | 0 mm | - | 0 W/m² | - |
| 1777890925 | 12.78° C | 94% | 1009.1 hPa | 0 mm | - | 0 W/m² | - |
| 1777890620 | 12.78° C | 94% | 1009.2 hPa | 0 mm | - | 0 W/m² | - |
| 1777890315 | 12.78° C | 94% | 1009.5 hPa | 0 mm | - | 0 W/m² | - |
| 1777890012 | 12.78° C | 94% | 1009.6 hPa | 0 mm | - | 0 W/m² | - |
| 1777889710 | 12.78° C | 94% | 1009.6 hPa | 0 mm | - | 0 W/m² | - |
| 1777889408 | 12.78° C | 94% | 1009.7 hPa | 0 mm | - | 0 W/m² | - |
| 1777889105 | 12.78° C | 94% | 1009.8 hPa | 0 mm | - | 0 W/m² | - |
| 1777888802 | 12.78° C | 94% | 1009.2 hPa | 0 mm | - | 0 W/m² | - |
| 1777888498 | 12.78° C | 95% | 1009.5 hPa | 0 mm | - | 0 W/m² | - |
| 1777888194 | 12.78° C | 95% | 1009 hPa | 1.78 mm | - | 0 W/m² | - |
| 1777887892 | 12.78° C | 95% | 1009.3 hPa | 1.78 mm | - | 0 W/m² | - |
| 1777887589 | 12.78° C | 94% | 1010 hPa | 0 mm | - | 0 W/m² | - |
| 1777887284 | 12.78° C | 94% | 1010.6 hPa | 0 mm | - | 0 W/m² | - |
| 1777886980 | 13.33° C | 93% | 1010.5 hPa | 3.05 mm | - | 0 W/m² | - |
| 1777886676 | 13.33° C | 93% | 1010.3 hPa | 4.32 mm | - | 0 W/m² | - |
| 1777886374 | 13.33° C | 92% | 1011.4 hPa | 13.72 mm | - | 0 W/m² | - |
| 1777886071 | 13.33° C | 91% | 1011.8 hPa | 14.99 mm | - | 0 W/m² | - |
| 1777885769 | 13.33° C | 91% | 1012.3 hPa | 1.27 mm | - | 0 W/m² | - |
| 1777885467 | 13.33° C | 92% | 1011.8 hPa | 0 mm | - | 0 W/m² | - |
| 1777885166 | 13.33° C | 92% | 1010.6 hPa | 0 mm | - | 0 W/m² | - |
| 1777884862 | 13.33° C | 92% | 1009.8 hPa | 0 mm | - | 0 W/m² | - |
| 1777884559 | 13.33° C | 92% | 1009.3 hPa | 0 mm | - | 0 W/m² | - |
| 1777884256 | 13.33° C | 91% | 1009.5 hPa | 0 mm | - | 0 W/m² | - |
| 1777883952 | 13.33° C | 90% | 1009.3 hPa | 0 mm | - | 0 W/m² | - |
* Rain latest hour (hover to see other rain measurements)
** Current wind speed in m/s (hover to see current wind gust speed)